This is the latest recevied weather packets stored in our database for station/object CQ0XPG-11. If no packets are shown the sender has not sent any weather packets the latest 10 day(s).
| Time | Temp. | Humidity | Pressure | Rain* | Wind** | Luminosity | Snow |
|---|---|---|---|---|---|---|---|
| 1778250642 | 18.33° C | 48% | 998.2 hPa | 0.25 mm | - | - | - |
| 1778250342 | 17.78° C | 49% | 998.2 hPa | 0.25 mm | - | - | - |
| 1778250034 | 18.33° C | 48% | 998.3 hPa | 0.25 mm | - | - | - |
| 1778249719 | 18.33° C | 47% | 998.3 hPa | 0.25 mm | - | - | - |
| 1778249430 | 18.89° C | 46% | 998.4 hPa | 0.25 mm | - | - | - |
| 1778249111 | 18.89° C | 45% | 998.4 hPa | 0.25 mm | - | - | - |
| 1778248822 | 19.44° C | 46% | 998.3 hPa | 0.25 mm | - | - | - |
| 1778248539 | 18.33° C | 47% | 998.3 hPa | 0.25 mm | - | - | - |
| 1778248212 | 18.33° C | 48% | 998.3 hPa | 0.25 mm | - | - | - |
| 1778247893 | 17.78° C | 50% | 998.5 hPa | 0.25 mm | - | - | - |
| 1778247609 | 17.78° C | 51% | 998.6 hPa | 0.25 mm | - | - | - |
| 1778247306 | 17.78° C | 52% | 998.8 hPa | 0.25 mm | - | - | - |
| 1778247006 | 17.78° C | 53% | 998.9 hPa | 0.25 mm | - | - | - |
| 1778246715 | 17.78° C | 49% | 998.9 hPa | 0.25 mm | - | - | - |
| 1778246396 | 18.33° C | 50% | 999 hPa | 0.25 mm | - | - | - |
| 1778246088 | 17.78° C | 55% | 999 hPa | 0.25 mm | - | - | - |
| 1778245469 | 17.22° C | 55% | 999.2 hPa | 0.25 mm | - | - | - |
| 1778245174 | 17.22° C | 55% | 999.2 hPa | 0.25 mm | - | - | - |
| 1778244898 | 17.22° C | 53% | 999.3 hPa | 0.25 mm | - | - | - |
| 1778244570 | 17.22° C | 55% | 999.3 hPa | 0.25 mm | - | - | - |
| 1778244262 | 17.22° C | 58% | 999.4 hPa | 0.25 mm | - | - | - |
| 1778243988 | 16.67° C | 58% | 999.5 hPa | 0.25 mm | - | - | - |
| 1778243364 | 16.67° C | 60% | 999.6 hPa | 0.25 mm | - | - | - |
| 1778243059 | 16.67° C | 59% | 999.6 hPa | 0.25 mm | - | - | - |
| 1778242769 | 16.11° C | 57% | 999.8 hPa | 0.25 mm | - | - | - |
* Rain since midnight (hover to see other rain measurements)
** Current wind speed in m/s (hover to see current wind gust speed)